Weather History for Bangor, ME

Change the Weather History Date:

Wednesday, April 4, 2012

  Actual Average Record
Temperature  
Mean Temperature 43 °F 38 °F  
Max Temperature 52 °F 47 °F 77 °F (2010)
Min Temperature 34 °F 28 °F 7 °F (1954)
Degree Days  
Heating Degree Days 22 27  
Month to date heating degree days 98 112  
Since 1 July heating degree days 5775 6835  
Cooling Degree Days 0 0  
Month to date cooling degree days 0 0  
Year to date cooling degree days 0 0  
Moisture  
Dew Point 25 °F    
Average Humidity 54    
Maximum Humidity 76    
Minimum Humidity 32    
Precipitation  
Precipitation T in 0.13 in 0.95 in (1990)
Month to date precipitation T 0.49  
Year to date precipitation 4.90 9.28  
Snow  
Snow T in 0.20 in 6.00 in (2007)
Month to date snowfall T 1.0  
Since 1 July snowfall 49.1 63.4  
Snow Depth 0.00 in    
Sea Level Pressure  
Sea Level Pressure 29.51 in    
Wind  
Wind Speed 8 mph (NW)    
Max Wind Speed 23 mph    
Max Gust Speed 29 mph    
Visibility 10 miles    
Events Rain , Snow    
T = Trace of Precipitation, MM = Missing Value Source: NWS Daily Summary

Daily Weather History Graph

Daily Weather History Graph

Search for Another Location

Airport:

Trip Planner

Search our weather history database for the weather conditions in past years. The results will help you decide how hot, cold, wet, or windy it might be!

Date:

Astronomy

Apr. 04, 2012 Rise Set
Actual Time 6:09 AM EDT 7:07 PM EDT
Civil Twilight 5:39 AM EDT 7:37 PM EDT
Nautical Twilight 5:04 AM EDT 8:12 PM EDT
Astronomical Twilight 4:27 AM EDT 8:50 PM EDT
Moon 4:52 PM EDT (4/4) 4:35 AM EDT (4/4)
Length of Visible Light 13h 57m
Length of Day
12h 57m
Waxing Gibbous, 93% of the Moon is Illuminated
Apr 4
Waxing Gibbous
Apr 6
Full
Apr 13
Last Quarter
Apr 21
New
Apr 29
First Quarter

Hourly Weather History & Observations

Time (EDT) Temp. Windchill Dew Point Humidity Pressure Visibility Wind Dir Wind Speed Gust Speed Precip Events Conditions
12:53 AM 37.9 °F 34.4 °F 19.9 °F 48% 29.64 in 10.0 mi West 4.6 mph - N/A   Mostly Cloudy
1:53 AM 35.1 °F - 21.0 °F 57% 29.62 in 10.0 mi Calm Calm - N/A   Scattered Clouds
2:53 AM 37.0 °F 32.4 °F 21.0 °F 52% 29.60 in 10.0 mi WSW 5.8 mph - N/A   Overcast
3:53 AM 37.0 °F 33.3 °F 21.0 °F 52% 29.60 in 10.0 mi West 4.6 mph - N/A   Mostly Cloudy
5:53 AM 37.9 °F 29.6 °F 28.0 °F 68% 29.60 in 10.0 mi NNW 13.8 mph - 0.00 in Rain Light Rain
6:53 AM 37.0 °F 30.4 °F 28.9 °F 73% 29.60 in 10.0 mi NW 9.2 mph - 0.00 in   Overcast
7:16 AM 37.4 °F 30.8 °F 30.2 °F 75% 29.59 in 9.0 mi NW 9.2 mph - 0.00 in Snow Light Snow
7:53 AM 37.9 °F 32.7 °F 30.9 °F 76% 29.58 in 10.0 mi NNW 6.9 mph - 0.00 in   Mostly Cloudy
8:53 AM 42.1 °F 38.4 °F 28.9 °F 60% 29.54 in 10.0 mi Variable 5.8 mph - N/A   Scattered Clouds
9:53 AM 44.1 °F 38.1 °F 27.0 °F 51% 29.51 in 10.0 mi NW 11.5 mph - N/A   Mostly Cloudy
10:53 AM 46.0 °F 43.1 °F 26.1 °F 46% 29.48 in 10.0 mi WNW 5.8 mph - N/A   Mostly Cloudy
11:53 AM 46.9 °F - 25.0 °F 42% 29.45 in 10.0 mi NW 11.5 mph 27.6 mph N/A   Mostly Cloudy
12:53 PM 50.0 °F - 25.0 °F 38% 29.43 in 10.0 mi NNW 15.0 mph 25.3 mph N/A   Mostly Cloudy
1:53 PM 50.0 °F - 24.1 °F 36% 29.42 in 10.0 mi NNW 12.7 mph 24.2 mph N/A   Mostly Cloudy
2:53 PM 51.1 °F - 23.0 °F 33% 29.41 in 10.0 mi NW 15.0 mph - N/A   Mostly Cloudy
3:53 PM 50.0 °F - 24.1 °F 36% 29.41 in 10.0 mi NW 15.0 mph - N/A   Overcast
4:53 PM 48.0 °F - 24.1 °F 39% 29.42 in 10.0 mi NW 13.8 mph - N/A   Overcast
5:53 PM 46.4 °F 39.5 °F 24.8 °F 43% 29.43 in 10.0 mi NW 17.3 mph 28.8 mph N/A   Overcast
6:53 PM 44.1 °F 36.8 °F 25.0 °F 47% 29.47 in 10.0 mi NNW 16.1 mph - N/A   Overcast
7:53 PM 42.1 °F 35.2 °F 24.1 °F 49% 29.49 in 10.0 mi NNW 12.7 mph - N/A   Mostly Cloudy
8:53 PM 39.9 °F 34.5 °F 25.0 °F 55% 29.50 in 10.0 mi WNW 8.1 mph - N/A   Mostly Cloudy
9:53 PM 39.0 °F 32.8 °F 27.0 °F 62% 29.50 in 10.0 mi WNW 9.2 mph - N/A   Scattered Clouds
10:53 PM 37.0 °F 32.4 °F 26.1 °F 65% 29.51 in 10.0 mi WNW 5.8 mph - N/A   Scattered Clouds
11:53 PM 36.0 °F 30.3 °F 26.1 °F 67% 29.52 in 10.0 mi WNW 6.9 mph - N/A   Scattered Clouds